Location: Pitton
(51.0667°N, 1.7000°W)
Time: 10:34:56
(UTC+00:00)

Cosmos 1741 Rocket - Pass Details

Date: 17 September 2019
Orbit: 761 x 783 km, 74.0° (Epoch: 22 October)

Event Time Altitude Azimuth Distance (km) Brightness Sun altitude
Rises 20:37:52 0° 337° (NNW) 3,283 8.2 -21.6°
Reaches altitude 10° 20:40:21 10° 342° (NNW) 2,352 7.2 -21.9°
Maximum altitude 20:45:34 52° 59° (ENE) 967 4.3 -22.6°
Enters shadow 20:46:18 49° 88° (E) 1,011 4.2 -22.7°
